Waarnemingen

Advertentie
Mijn weer
Eindhoven, Nederland (6370): temperatuur & dauwpunt: 22.04.2017 02:00:00 - 28.04.2017 02:00:00 (CEST)Eindhoven, Nederland (6370): temperatuur 5cm: 22.04.2017 02:00:00 - 28.04.2017 02:00:00 (CEST)Eindhoven, Nederland (6370): windsnelheid & windstoten: 22.04.2017 02:00:00 - 28.04.2017 02:00:00 (CEST)Eindhoven, Nederland (6370): windrichting: 22.04.2017 02:00:00 - 28.04.2017 02:00:00 (CEST)Eindhoven, Nederland (6370): luchtdruk: 22.04.2017 02:00:00 - 28.04.2017 02:00:00 (CEST)Eindhoven, Nederland (6370): zicht: 22.04.2017 02:00:00 - 28.04.2017 02:00:00 (CEST)Eindhoven, Nederland (6370): neerslag: 22.04.2017 02:00:00 - 28.04.2017 02:00:00 (CEST)
Datum & Tijd tt [°C] td [°C] tt 5cm [°C] ff [km/u] ff [kn] fx [km/u] fx [kn] dd ppp [hPa] vv [km] rr [mm]
28.04.2017 02:00:00 1,4 -1,1 -2,7 9 5 11 6 ZZW 1015,3 10 0,0
28.04.2017 01:00:00 1,2 -1,4 -3,3 8 4 11 6 Z 1015,6 10 0,0
28.04.2017 00:00:00 0,7 -1,4 -4,2 5 3 7 4 ZZW 1015,8 10 0,0
27.04.2017 23:00:00 2,5 -1,3 -2,5 8 4 7 4 ZW 1016,1 10 0,0
27.04.2017 22:00:00 4,7 -2,0 -0,6 8 4 11 6 W 1016,4 10 0,0
27.04.2017 21:00:00 6,8 -1,3 4,5 8 4 22 12 WNW 1016,3 10 0,0
27.04.2017 20:00:00 9,1 -1,1 8,9 11 6 29 16 WNW 1016,0 10 0,0
27.04.2017 19:00:00 9,9 -0,1 10,7 16 9 25 14 W 1016,0 10 0,0
27.04.2017 18:00:00 8,2 2,8 7,9 9 5 18 10 ZZW 1016,1 10 0,0
27.04.2017 17:00:00 8,1 2,1 8,2 15 8 25 14 WZW 1016,6 10 0,0
27.04.2017 16:00:00 8,7 2,1 9,5 9 5 25 14 WNW 1016,7 10 0,0
27.04.2017 15:00:00 7,0 3,3 6,7 5 3 32 18 N 1017,1 10 0,4
27.04.2017 14:00:00 10,9 0,2 14,4 18 10 25 14 WZW 1016,6 10 0,0
27.04.2017 13:00:00 8,8 1,4 10,1 13 7 25 14 W 1017,0 10 0,0
27.04.2017 12:00:00 9,4 0,8 11,2 11 6 18 10 W 1017,4 10 0,0
27.04.2017 11:00:00 8,1 -0,2 9,5 9 5 18 10 W 1017,5 10 0,0
27.04.2017 10:00:00 8,2 1,1 10,3 9 5 14 8 WNW 1017,4 10 0,0
27.04.2017 09:00:00 6,4 1,9 7,1 8 4 14 8 NW 1017,4 10 0,0
27.04.2017 08:00:00 2,4 1,3 1,7 4 2 7 4 ZW 1017,2 10 0,0
27.04.2017 07:00:00 -2,1 -2,6 -5,9 5 3 7 4 ZW 1016,9 9 0,0
27.04.2017 06:00:00 -0,9 -1,1 -6,7 2 1 4 2 ZW 1016,7 10 0,0
27.04.2017 05:00:00 -1,5 -2,2 -6,9 4 2 4 2 ZW 1016,5 9 0,0
27.04.2017 04:00:00 -0,3 -1,6 -6,2 2 1 4 2 WZW 1016,5 10 0,0
27.04.2017 03:00:00 0,4 -0,3 -5,3 2 1 4 2 - 1016,4 10 0,0
27.04.2017 02:00:00 0,1 -1,1 -3,8 4 2 7 4 - 1016,4 10 0,0
27.04.2017 01:00:00 1,9 0,6 -2,7 2 1 11 6 - 1016,4 10 0,0
27.04.2017 00:00:00 4,1 1,1 1,8 9 5 14 8 NW 1016,2 10 0,0
26.04.2017 23:00:00 4,8 1,0 2,7 8 4 11 6 NW 1015,9 10 0,0
26.04.2017 22:00:00 5,4 1,2 4,0 8 4 14 8 NW 1015,6 10 0,0
26.04.2017 21:00:00 6,0 1,0 4,4 8 4 18 10 NNW 1015,0 10 0,0
26.04.2017 20:00:00 7,3 1,1 6,8 16 9 36 19 NNW 1014,5 10 0,0
26.04.2017 19:00:00 8,9 -1,6 8,6 16 9 25 14 NW 1013,9 10 0,0
26.04.2017 18:00:00 10,4 -0,8 12,1 16 9 32 18 WNW 1013,5 10 0,0
26.04.2017 17:00:00 10,5 0,6 10,4 18 10 29 16 WNW 1013,4 10 0,0
26.04.2017 16:00:00 8,8 1,7 9,7 18 10 36 19 N 1013,4 10 0,1
26.04.2017 15:00:00 10,0 0,2 10,9 13 7 29 16 NNW 1013,2 10 0,0
26.04.2017 14:00:00 9,9 -0,2 9,9 16 9 25 14 NNW 1013,1 10 0,0
26.04.2017 13:00:00 9,1 -1,9 10,5 13 7 22 12 NNW 1012,9 10 0,0
26.04.2017 12:00:00 9,5 -2,8 11,9 13 7 25 14 N 1012,9 10 0,0
26.04.2017 11:00:00 8,7 -1,4 10,8 9 5 25 14 NNW 1012,8 10 0,0
26.04.2017 10:00:00 7,7 1,2 8,1 8 4 18 10 - 1012,5 10 0,0
26.04.2017 09:00:00 6,3 2,4 6,8 9 5 14 8 W 1012,3 10 0,0
26.04.2017 08:00:00 3,3 1,1 2,8 5 3 14 8 W 1012,0 10 0,0
26.04.2017 07:00:00 0,4 -0,6 -3,6 8 4 11 6 W 1011,4 10 0,0
26.04.2017 06:00:00 0,0 -1,3 -1,8 9 5 14 8 WZW 1011,2 10 0,0
26.04.2017 05:00:00 -0,3 -1,7 -2,2 11 6 14 8 ZW 1011,1 10 0,0
26.04.2017 04:00:00 0,1 -1,8 -2,4 9 5 14 8 ZZW 1011,2 10 0,0
26.04.2017 03:00:00 0,6 -1,6 -4,3 8 4 11 6 ZZW 1011,1 10 0,0
26.04.2017 02:00:00 1,1 -1,2 -4,4 9 5 11 6 ZW 1011,1 28 0,0
26.04.2017 01:00:00 0,6 -2,0 -4,5 8 4 11 6 ZW 1011,0 38 0,0
26.04.2017 00:00:00 2,1 -1,2 -4,3 8 4 7 4 ZW 1011,0 43 0,0
25.04.2017 23:00:00 1,6 -1,0 -4,0 5 3 7 4 ZW 1011,4 10 0,0
25.04.2017 22:00:00 1,8 -0,2 -2,2 4 2 7 4 - 1011,4 10 0,0
25.04.2017 21:00:00 5,3 0,8 3,8 8 4 29 16 N 1011,3 10 0,0
25.04.2017 20:00:00 7,1 -1,1 6,6 21 11 32 18 NW 1011,1 10 0,0
25.04.2017 19:00:00 8,5 -0,7 9,4 22 12 40 21 WNW 1011,0 10 0,0
25.04.2017 18:00:00 9,0 -0,9 10,3 24 13 36 19 NW 1010,7 10 0,0
25.04.2017 17:00:00 10,8 -3,6 11,6 26 14 36 19 NW 1010,4 10 0,0
25.04.2017 16:00:00 10,7 -2,0 11,2 26 14 36 19 NW 1010,3 10 0,0
25.04.2017 15:00:00 9,4 1,4 11,0 21 11 43 23 NW 1010,4 10 0,2
25.04.2017 14:00:00 9,7 -0,8 12,0 26 14 47 25 NNW 1009,9 10 0,0
25.04.2017 13:00:00 7,0 1,4 7,5 21 11 47 25 W 1009,7 10 0,0
25.04.2017 12:00:00 8,1 1,7 8,6 21 11 50 27 WNW 1009,3 10 0,0
25.04.2017 11:00:00 7,5 2,7 8,5 26 14 50 27 W 1008,8 10 0,0
25.04.2017 10:00:00 6,7 0,2 7,0 28 15 40 21 W 1008,4 10 0,0
25.04.2017 09:00:00 6,5 1,4 6,7 22 12 36 19 W 1008,2 10 0,0
25.04.2017 08:00:00 4,9 1,1 4,6 15 8 22 12 WZW 1007,9 10 0,0
25.04.2017 07:00:00 4,4 1,5 3,2 11 6 18 10 W 1007,5 10 0,0
25.04.2017 06:00:00 5,2 3,1 4,6 11 6 29 16 W 1007,0 10 0,0
25.04.2017 05:00:00 6,4 3,9 5,7 16 9 29 16 WZW 1006,6 10 0,0
25.04.2017 04:00:00 6,4 4,8 6,0 11 6 18 10 WZW 1006,6 10 0,0
25.04.2017 03:00:00 6,3 5,4 5,9 9 5 14 8 ZW 1007,0 10 0,1
25.04.2017 02:00:00 6,4 5,3 6,1 5 3 22 12 W 1007,5 10 0,7
25.04.2017 01:00:00 6,9 4,5 6,7 18 10 36 19 NNW 1007,8 10 0,1
25.04.2017 00:00:00 9,0 6,3 9,0 15 8 40 21 NW 1008,0 10 0,0
24.04.2017 23:00:00 9,4 5,9 8,8 11 6 18 10 ZW 1008,0 10 0,0
24.04.2017 22:00:00 10,3 5,5 9,9 9 5 18 10 WZW 1008,9 10 0,0
24.04.2017 21:00:00 11,5 5,0 10,9 15 8 25 14 WZW 1009,4 10 0,0
24.04.2017 20:00:00 12,3 5,1 12,0 18 10 36 19 WZW 1010,1 10 0,0
24.04.2017 19:00:00 13,2 5,7 13,2 18 10 32 18 W 1010,6 10 0,0
24.04.2017 18:00:00 14,0 3,6 14,2 16 9 32 18 WZW 1011,0 10 0,0
24.04.2017 17:00:00 14,8 2,9 15,5 21 11 32 18 WZW 1011,6 10 0,0
24.04.2017 16:00:00 15,0 3,3 16,2 24 13 36 19 W 1012,5 10 0,0
24.04.2017 15:00:00 14,7 3,4 16,5 22 12 40 21 WZW 1013,4 10 0,0
24.04.2017 14:00:00 15,2 3,3 17,9 24 13 40 21 WZW 1014,2 10 0,0
24.04.2017 13:00:00 14,5 3,1 14,7 29 16 43 23 ZW 1015,1 10 0,0
24.04.2017 12:00:00 13,0 2,6 12,2 28 15 40 21 ZW 1016,1 10 0,0
24.04.2017 11:00:00 11,1 1,3 12,4 24 13 40 21 WZW 1016,8 10 0,0
24.04.2017 10:00:00 9,2 0,7 9,8 24 13 32 18 ZW 1017,3 10 0,0
24.04.2017 09:00:00 7,3 0,2 7,3 21 11 29 16 ZZW 1017,9 10 0,0
24.04.2017 08:00:00 5,6 0,7 5,2 13 7 22 12 ZZW 1018,3 10 0,0
24.04.2017 07:00:00 4,3 0,5 3,6 15 8 22 12 ZZW 1018,6 10 0,0
24.04.2017 06:00:00 3,1 0,6 1,7 9 5 14 8 Z 1019,1 10 0,0
24.04.2017 05:00:00 1,7 -0,2 -2,2 9 5 14 8 Z 1019,9 10 0,0
24.04.2017 04:00:00 0,4 -0,9 -2,6 8 4 11 6 Z 1020,7 10 0,0
24.04.2017 03:00:00 1,3 0,0 -4,0 4 2 7 4 Z 1021,6 10 0,0
24.04.2017 02:00:00 1,0 -0,3 -4,0 4 2 7 4 Z 1022,3 10 0,0
24.04.2017 01:00:00 1,4 0,6 -3,2 4 2 7 4 Z 1023,1 10 0,0
24.04.2017 00:00:00 1,7 0,6 -3,2 4 2 4 2 - 1023,8 10 0,0
23.04.2017 23:00:00 2,7 0,9 -2,6 4 2 7 4 - 1024,4 10 0,0
23.04.2017 22:00:00 3,3 0,4 -0,9 5 3 7 4 - 1024,8 10 0,0
23.04.2017 21:00:00 8,0 1,2 4,7 5 3 7 4 WNW 1024,8 10 0,0
23.04.2017 20:00:00 9,2 0,5 8,5 8 4 18 10 NW 1025,0 10 0,0
23.04.2017 19:00:00 9,8 0,5 10,2 13 7 22 12 NW 1025,3 10 0,0
23.04.2017 18:00:00 10,2 0,2 11,6 13 7 25 14 NNW 1025,4 10 0,0
23.04.2017 17:00:00 11,1 0,8 11,4 11 6 25 14 WNW 1025,8 10 0,0
23.04.2017 16:00:00 9,3 3,4 9,3 18 10 29 16 N 1026,2 10 0,0
23.04.2017 15:00:00 9,4 1,0 9,9 15 8 29 16 NW 1026,4 10 0,0
23.04.2017 14:00:00 8,9 1,7 9,3 11 6 25 14 NW 1027,0 10 0,0
23.04.2017 13:00:00 9,4 0,7 11,0 16 9 29 16 NNW 1027,1 10 0,0
23.04.2017 12:00:00 9,9 2,2 11,1 15 8 25 14 NW 1027,4 10 0,0
23.04.2017 11:00:00 8,7 -0,5 10,0 15 8 25 14 N 1027,3 10 0,0
23.04.2017 10:00:00 8,7 0,5 10,2 13 7 22 12 WNW 1027,1 10 0,0
23.04.2017 09:00:00 7,1 2,3 7,8 9 5 18 10 NW 1027,0 10 0,0
23.04.2017 08:00:00 4,9 2,2 4,3 8 4 11 6 W 1026,8 10 0,0
23.04.2017 07:00:00 3,0 1,5 -0,2 5 3 11 6 W 1026,4 10 0,0
23.04.2017 06:00:00 3,3 1,8 2,2 5 3 11 6 W 1026,2 10 0,0
23.04.2017 05:00:00 3,3 1,9 0,8 5 3 11 6 W 1026,2 10 0,0
23.04.2017 04:00:00 4,3 1,9 3,9 8 4 25 14 WNW 1026,2 10 0,0
23.04.2017 03:00:00 4,2 1,4 2,6 4 2 14 8 - 1026,4 10 0,0
23.04.2017 02:00:00 4,8 1,4 4,1 9 5 14 8 W 1026,6 10 0,0
23.04.2017 01:00:00 4,4 0,9 2,6 8 4 11 6 W 1026,7 10 0,0
23.04.2017 00:00:00 5,0 0,9 3,6 8 4 18 10 WNW 1026,8 10 0,0
22.04.2017 23:00:00 5,6 1,6 4,3 9 5 14 8 WNW 1026,7 10 0,0
22.04.2017 22:00:00 6,1 1,2 5,1 11 6 22 12 NW 1026,5 10 0,0
22.04.2017 21:00:00 7,5 0,0 6,9 18 10 36 19 NNW 1026,2 10 0,0
22.04.2017 20:00:00 8,6 -0,1 8,6 18 10 36 19 NW 1026,1 10 0,0
22.04.2017 19:00:00 9,4 -0,1 9,5 24 13 40 21 NW 1026,0 10 0,0
22.04.2017 18:00:00 10,0 1,0 10,1 24 13 43 23 NW 1025,9 10 0,0
22.04.2017 17:00:00 10,3 1,0 10,7 24 13 40 21 N 1025,8 10 0,0
22.04.2017 16:00:00 10,4 2,3 11,6 18 10 36 19 NW 1026,2 39 0,0
22.04.2017 15:00:00 9,7 3,0 9,8 22 12 36 19 N 1026,8 10 0,0
22.04.2017 14:00:00 10,8 3,5 10,5 18 10 29 16 NW 1026,6 10 0,0
22.04.2017 13:00:00 10,6 1,9 10,8 15 8 32 18 NW 1027,1 10 0,0
22.04.2017 12:00:00 10,9 2,0 10,3 24 13 40 21 NNW 1027,3 10 0,0
22.04.2017 11:00:00 10,0 2,2 10,7 21 11 36 19 NNW 1027,2 10 0,0
22.04.2017 10:00:00 9,0 5,2 9,6 15 8 25 14 NNW 1027,2 10 0,0
22.04.2017 09:00:00 7,4 5,4 7,5 8 4 14 8 WNW 1027,1 10 0,0
22.04.2017 08:00:00 6,3 5,0 6,0 8 4 11 6 W 1026,6 10 0,1
22.04.2017 07:00:00 6,0 4,9 5,8 8 4 14 8 NNW 1026,4 10 0,3
22.04.2017 06:00:00 6,2 5,2 6,1 16 9 36 19 N 1026,1 10 0,6
22.04.2017 05:00:00 7,0 5,7 7,0 24 13 40 21 N 1025,6 10 0,3
22.04.2017 04:00:00 10,1 7,7 9,8 9 5 14 8 W 1025,1 10 0,0
22.04.2017 03:00:00 10,3 7,5 9,9 9 5 14 8 W 1025,5 10 0,0
22.04.2017 02:00:00 10,4 7,5 9,8 11 6 18 10 W 1025,9 10 0,0

tt = temperatuur
td = dauwpunt
tt 5cm = temperatuur 5cm
ff = windsnelheid
fx = windstoten
dd = windrichting
ppp = luchtdruk
vv = zicht
rr = neerslag

Weerstations in de omgeving